[[{"header":{"parameterUnit":"m.s-1","parameterCategory":1,"la1":30.2991,"la2":30.254,"lo1":-89.0895,"lo2":-89.0444,"dy":0.0017,"dx":0.0017,"nx":28,"ny":28,"refTime":"2025-04-20T21:00:00:Z","depth":0,"parameterNumber":2,"parameterNumberName":"U-component_of_WINDS"},"data":[0,0,0,0,0,0,0,0,0,0,0,0,0,0,0,0,0,0,0,0,0,0,0,0,0,0,0,0,0,0,0,0,0,0,0,0,0,0,0,0,0,0,0,0,0,0,0,0,0,0,0,0,0,0,0,0,0,0,-3.1911,-3.1912,0,-3.1975,-3.1976,-3.1977,-3.1952,-3.1951,-3.1949,-3.1948,-3.2012,-3.2015,-3.2018,0,0,0,0,0,0,0,0,0,0,0,0,0,-3.1767,-3.177,-3.1911,-3.1912,-3.1913,-3.1975,-3.1976,-3.1977,-3.1953,-3.1951,-3.1949,-3.1947,-3.2011,-3.2014,-3.2018,0,0,0,0,0,0,0,0,0,0,0,0,0,-3.183,-3.1771,-3.1911,-3.1908,-3.1909,-3.1975,-3.1976,-3.1977,-3.1953,-3.1951,-3.1949,-3.1947,-3.201,-3.2014,-3.2018,-3.2091,0,0,-3.2033,-3.2034,0,0,0,0,0,0,0,0,-3.1827,-3.1836,-3.1908,-3.1909,-3.1909,-3.1954,-3.1948,-3.2015,-3.1954,-3.1936,-3.1948,-3.1945,-3.1994,-3.2,-3.2016,-3.2094,-3.2096,-3.2033,-3.2036,-3.2038,-3.2039,0,0,0,0,0,0,0,-3.1822,-3.1833,-3.1937,-3.1909,-3.191,-3.1903,-3.191,-3.1961,-3.1977,-3.1937,-3.1936,-3.1944,-3.1994,-3.2012,-3.2018,-3.2097,-3.2033,-3.2037,-3.204,-3.2041,-3.2235,-3.2238,0,0,0,0,0,0,-3.1818,-3.1829,-3.1934,-3.1938,-3.1862,-3.1908,-3.1915,-3.1942,-3.1976,-3.1979,-3.1946,-3.1942,-3.2005,-3.2012,-3.202,-3.2105,-3.2038,-3.2042,-3.2045,-3.2233,-3.2236,-3.2238,0,0,0,0,0,0,-3.1815,-3.1828,-3.1932,-3.1883,-3.1896,-3.1913,-3.1942,-3.1944,-3.1962,-3.1982,-3.1985,-3.1961,-3.2004,-3.2013,-3.2073,-3.2107,-3.2044,-3.2048,-3.223,-3.2234,-3.2237,-3.2277,0,0,0,0,0,0,-3.1811,-3.1827,-3.1855,-3.1884,-3.1899,-3.1984,-3.1945,-3.1947,-3.197,-3.1967,-3.1998,-3.2001,-3.2003,-3.2066,-3.2078,-3.2112,-3.2052,-3.2227,-3.2232,-3.2236,-3.2273,-3.2282,-3.2289,0,0,0,0,0,-3.1806,-3.1863,-3.1856,-3.1869,-3.1934,-3.1987,-3.1995,-3.1997,-3.1973,-3.2001,-3.2014,-3.2,-3.2102,-3.2073,-3.2085,-3.2122,-3.2225,-3.223,-3.2236,-3.2269,-3.228,-3.2289,0,0,0,0,0,0,-3.1837,-3.1867,-3.1859,-3.1928,-3.1955,-3.1982,-3.2017,-3.2008,-3.2042,-3.2037,-3.2038,-3.2045,-3.2106,-3.212,-3.2087,-3.2193,-3.216,-3.2168,-3.2181,-3.2191,-3.2199,-3.2194,-3.2056,0,0,0,0,0,-3.1852,-3.1892,-3.1916,-3.1975,-3.1988,-3.2001,-3.2024,-3.2023,-3.205,-3.2061,-3.2079,-3.2106,-3.2144,-3.2169,-3.2205,-3.2276,-3.2281,-3.2307,-3.2315,-3.2322,-3.2328,-3.2365,-3.2376,-3.2256,-3.2256,-3.2256,0,0,-3.1882,-3.1904,-3.1929,-3.1981,-3.2002,-3.2043,-3.201,-3.2055,-3.2085,-3.2068,-3.2125,-3.2139,-3.2169,-3.2234,-3.2263,-3.2247,-3.2363,-3.2329,-3.2334,-3.2336,-3.2371,-3.2383,-3.2393,-3.226,-3.2259,-3.2259,0,0,-3.1959,-3.198,-3.203,-3.2052,-3.2084,-3.2092,-3.2104,-3.2133,-3.2141,-3.2199,-3.2186,-3.2222,-3.2288,-3.2309,-3.2329,-3.2414,-3.2402,-3.2426,-3.2468,-3.2504,-3.2514,-3.2522,-3.2551,-3.2561,-3.2433,-3.2433,-3.2433,0,-3.1993,-3.2055,-3.2057,-3.2103,-3.2126,-3.2113,-3.2163,-3.2184,-3.2226,-3.2241,-3.2223,-3.2305,-3.2325,-3.2394,-3.2415,-3.2432,-3.2444,-3.2422,-3.2512,-3.2521,-3.2528,-3.2556,-3.2567,-3.2436,-3.2436,-3.2435,-3.2435,0,-3.2094,-3.2137,-3.2174,-3.2215,-3.2242,-3.229,-3.2299,-3.2326,-3.2323,-3.2333,-3.2391,-3.2414,-3.2454,-3.2471,-3.2469,-3.254,-3.2529,-3.2512,-3.2478,-3.2542,-3.2568,-3.2578,-3.244,-3.2439,-3.2438,-3.2437,0,0,-3.219,-3.2232,-3.2246,-3.2263,-3.2298,-3.2331,-3.2378,-3.2418,-3.244,-3.247,-3.2509,-3.2565,-3.255,-3.2572,-3.2572,-3.2604,-3.2668,-3.2583,-3.2584,-3.2596,-3.2745,-3.2756,-3.2768,-3.2661,-3.2663,-3.2665,-3.2742,0,-3.2268,-3.2351,-3.2355,-3.243,-3.2469,-3.2457,-3.2498,-3.2523,-3.2534,-3.2568,-3.258,-3.2619,-3.2596,-3.261,-3.2641,-3.2654,-3.2697,-3.2648,-3.2695,-3.2697,-3.2686,-3.2782,-3.2794,-3.2866,-3.2752,-3.2754,-3.2755,0,-3.237,-3.2402,-3.2481,-3.2509,-3.2526,-3.2563,-3.2599,-3.2633,-3.2661,-3.2666,-3.2691,-3.2687,-3.2734,-3.2701,-3.2765,-3.2732,-3.2752,-3.2761,-3.2764,-3.2766,-3.2728,-3.2785,-3.2889,-3.2899,-3.2771,-3.277,-3.2769,0,-3.2429,-3.2494,-3.2549,-3.2565,-3.26,-3.2625,-3.2641,-3.2667,-3.2691,-3.2722,-3.2737,-3.2775,-3.2794,-3.2823,-3.2828,-3.2804,-3.2892,-3.286,-3.2896,-3.2896,-3.2914,-3.2912,-3.302,-3.293,-3.293,-3.293,-3.293,0,-3.2515,-3.2563,-3.2576,-3.2609,-3.2663,-3.2667,-3.272,-3.2733,-3.2757,-3.2792,-3.2786,-3.2819,-3.2825,-3.286,-3.2865,-3.2916,-3.2926,-3.2931,-3.2931,-3.293,-3.2929,-3.2941,-3.2935,-3.2933,-3.2932,-3.2932,-3.2931,0,-3.2589,-3.26,-3.2659,-3.2688,-3.2696,-3.2734,-3.2758,-3.279,-3.28,-3.2845,-3.2856,-3.2871,-3.2912,-3.2921,-3.2969,-3.2972,-3.3032,-3.3029,-3.3023,-3.3022,-3.3057,-3.3053,-3.3175,-3.319,-3.3092,-3.3093,-3.3094,0,-3.2642,-3.2679,-3.2711,-3.2734,-3.2751,-3.279,-3.2813,-3.2819,-3.2844,-3.2879,-3.2906,-3.2946,-3.2978,-3.3043,-3.3058,-3.3094,-3.309,-3.313,-3.3095,-3.3093,-3.3088,-3.3085,-3.3088,-3.3136,-3.3137,-3.3138,-3.3139,0,-3.2734,-3.2737,-3.2772,-3.2809,-3.2837,-3.2867,-3.2894,-3.2914,-3.2923,-3.2952,-3.2993,-3.3018,-3.3067,-3.3106,-3.3142,-3.3157,-3.3149,-3.315,-3.316,-3.3158,-3.3152,-3.3154,-3.3038,-3.3147,-3.3146,-3.3145,-3.3145,-3.3145,-3.2798,-3.2829,-3.2857,-3.2895,-3.2917,-3.2943,-3.2974,-3.2988,-3.3023,-3.3063,-3.3065,-3.3109,-3.3136,-3.3184,-3.3202,-3.3236,-3.3223,-3.3239,-3.3242,-3.3245,-3.3247,-3.3149,-3.3243,-3.3243,-3.3243,-3.3243,-3.3242,0,-3.2887,-3.2904,-3.294,-3.2979,-3.3009,-3.3,-3.303,-3.3056,-3.3095,-3.3121,-3.3153,-3.32,-3.3238,-3.3256,-3.3293,-3.3317,-3.3314,-3.3326,-3.3323,-3.3327,-3.3257,-3.3244,-3.3328,-3.3328,-3.3328,-3.3328,-3.3328,-3.3328,-3.2937,-3.2989,-3.2996,-3.3059,-3.3076,-3.312,-3.3137,-3.3161,-3.3181,-3.3234,-3.3266,-3.3278,-3.33,-3.3339,-3.3373,-3.3377,-3.339,-3.3404,-3.3406,-3.3341,-3.3332,-3.3323,-3.3311,-3.3407,-3.3407,-3.3472,-3.3473,-3.3474]},{"header":{"parameterUnit":"m.s-1","parameterCategory":1,"la1":30.2991,"la2":30.254,"lo1":-89.0895,"lo2":-89.0444,"dy":0.0017,"dx":0.0017,"nx":28,"ny":28,"refTime":"2025-04-20T21:00:00:Z","depth":0,"parameterNumber":3,"parameterNumberName":"V-component_of_WINDS"},"data":[0,0,0,0,0,0,0,0,0,0,0,0,0,0,0,0,0,0,0,0,0,0,0,0,0,0,0,0,0,0,0,0,0,0,0,0,0,0,0,0,0,0,0,0,0,0,0,0,0,0,0,0,0,0,0,0,0,0,3.1628,3.1627,0,3.1606,3.1606,3.1606,3.1544,3.1542,3.1541,3.154,3.1519,3.1519,3.152,0,0,0,0,0,0,0,0,0,0,0,0,0,3.1618,3.1618,3.1628,3.1627,3.1627,3.1606,3.1606,3.1605,3.1544,3.1542,3.154,3.1539,3.1519,3.1519,3.152,0,0,0,0,0,0,0,0,0,0,0,0,0,3.1612,3.1618,3.1628,3.1594,3.1591,3.1606,3.1606,3.1605,3.1544,3.1542,3.154,3.1538,3.1518,3.1519,3.152,3.1568,0,0,3.1524,3.1524,0,0,0,0,0,0,0,0,3.1612,3.1612,3.1599,3.1596,3.1593,3.1575,3.1595,3.1593,3.1545,3.1562,3.1539,3.1537,3.1539,3.1539,3.1539,3.1567,3.1566,3.1524,3.1524,3.1525,3.1525,0,0,0,0,0,0,0,3.1613,3.1613,3.1619,3.1599,3.1595,3.158,3.1577,3.1594,3.1562,3.156,3.1556,3.1554,3.1537,3.1538,3.1538,3.1565,3.1524,3.1525,3.1525,3.1526,3.1631,3.1633,0,0,0,0,0,0,3.1618,3.1614,3.162,3.1618,3.1598,3.1582,3.1579,3.1583,3.1562,3.1557,3.1556,3.1551,3.1537,3.1537,3.1537,3.1591,3.1525,3.1526,3.1526,3.1629,3.1632,3.1634,0,0,0,0,0,0,3.1618,3.1619,3.1621,3.1615,3.1614,3.1584,3.159,3.1584,3.1584,3.1558,3.1553,3.1562,3.1536,3.1536,3.156,3.159,3.1526,3.1527,3.1627,3.163,3.1633,3.17,0,0,0,0,0,0,3.1618,3.1619,3.1636,3.1616,3.1614,3.1644,3.1592,3.1585,3.1586,3.158,3.1563,3.1558,3.1534,3.1559,3.1562,3.159,3.1528,3.1624,3.1628,3.1632,3.1695,3.1705,3.1713,0,0,0,0,0,3.1618,3.1656,3.1637,3.1639,3.1635,3.1646,3.1645,3.1616,3.1589,3.1606,3.159,3.1559,3.1586,3.1562,3.1564,3.1593,3.1622,3.1627,3.1632,3.1691,3.1703,3.1713,0,0,0,0,0,0,3.1681,3.1653,3.1632,3.1664,3.1658,3.1635,3.1656,3.163,3.1631,3.1626,3.159,3.1587,3.1617,3.1608,3.1581,3.1638,3.1599,3.1605,3.1643,3.1655,3.1664,3.1665,3.1529,0,0,0,0,0,3.1699,3.1709,3.1684,3.1716,3.1714,3.1686,3.1689,3.1667,3.1659,3.1656,3.1642,3.1636,3.1643,3.1648,3.1653,3.1693,3.1689,3.1715,3.1724,3.1732,3.1737,3.1758,3.1769,3.165,3.165,3.165,0,0,3.1736,3.1722,3.173,3.1728,3.172,3.1733,3.1684,3.1699,3.1708,3.1659,3.1681,3.1671,3.1661,3.1694,3.1708,3.1688,3.1769,3.1738,3.1744,3.1745,3.1764,3.1775,3.1785,3.1654,3.1653,3.1652,0,0,3.1809,3.18,3.1825,3.1818,3.1807,3.1789,3.1795,3.1776,3.1767,3.1789,3.1753,3.1764,3.1777,3.1772,3.1771,3.1844,3.1816,3.1847,3.1896,3.1917,3.1926,3.1934,3.1961,3.197,3.1852,3.1853,3.1853,0,3.1856,3.1873,3.1841,3.1859,3.1859,3.1815,3.1841,3.1837,3.1829,3.183,3.1807,3.1823,3.1814,3.1845,3.1863,3.1864,3.1871,3.1849,3.1927,3.1935,3.1942,3.1967,3.1977,3.1856,3.1856,3.1856,3.1855,0,3.1932,3.1944,3.1966,3.1959,3.1962,3.1984,3.1956,3.1963,3.1941,3.1925,3.1949,3.1936,3.1939,3.1944,3.1924,3.1973,3.1961,3.1934,3.1893,3.1958,3.198,3.199,3.1862,3.1861,3.1859,3.1858,0,0,3.2044,3.2019,3.2028,3.2024,3.201,3.2019,3.2039,3.2041,3.2048,3.2044,3.206,3.2073,3.2048,3.2047,3.2025,3.2044,3.2103,3.2014,3.2013,3.2031,3.2158,3.2178,3.219,3.2085,3.2086,3.2088,3.2158,0,3.2113,3.2145,3.2118,3.2156,3.2167,3.2127,3.2144,3.2138,3.2124,3.2132,3.2117,3.2126,3.2092,3.2091,3.2108,3.2092,3.2128,3.2087,3.21,3.2101,3.2103,3.2201,3.2223,3.229,3.2167,3.2168,3.2169,0,3.2198,3.2198,3.2237,3.2221,3.2224,3.2241,3.224,3.2249,3.2241,3.2229,3.2229,3.2203,3.2222,3.2183,3.221,3.2183,3.2187,3.218,3.2182,3.2182,3.2139,3.2204,3.2311,3.2321,3.2183,3.2182,3.2181,0,3.2276,3.2286,3.231,3.2309,3.229,3.2303,3.2296,3.2286,3.2289,3.2289,3.2291,3.2294,3.2295,3.2299,3.2274,3.2248,3.2304,3.2263,3.2296,3.2296,3.2309,3.2308,3.2418,3.2312,3.2312,3.2312,3.2311,0,3.2356,3.2382,3.2345,3.236,3.2388,3.2357,3.2385,3.2374,3.2366,3.2379,3.2344,3.2357,3.2324,3.2334,3.2315,3.234,3.2341,3.2333,3.2328,3.2336,3.2337,3.2338,3.2332,3.2314,3.2314,3.2313,3.2313,0,3.2447,3.2424,3.2448,3.2429,3.2425,3.2446,3.243,3.2443,3.2428,3.2444,3.2447,3.2422,3.2432,3.2408,3.2414,3.2401,3.2438,3.2425,3.244,3.2436,3.247,3.2468,3.2584,3.2598,3.2483,3.2485,3.2485,0,3.25,3.2519,3.2502,3.2508,3.2502,3.2513,3.2516,3.2486,3.2491,3.2484,3.2499,3.2506,3.2509,3.2527,3.251,3.2515,3.2502,3.2543,3.2503,3.2511,3.2503,3.2502,3.2504,3.2551,3.2553,3.2554,3.2555,0,3.2596,3.2584,3.2589,3.2591,3.2596,3.2596,3.2594,3.2601,3.257,3.2577,3.2586,3.259,3.2596,3.2604,3.2605,3.2598,3.2572,3.2567,3.2575,3.2584,3.2592,3.2588,3.2463,3.2565,3.2564,3.2563,3.2562,3.2562,3.267,3.2685,3.2675,3.2683,3.2678,3.2677,3.2689,3.2675,3.2682,3.2685,3.2667,3.2681,3.2673,3.2672,3.2669,3.2679,3.2661,3.2672,3.2675,3.2678,3.2684,3.2591,3.2679,3.2679,3.2679,3.2678,3.2678,0,3.2764,3.2756,3.2763,3.2761,3.2768,3.2742,3.2739,3.2746,3.2758,3.2753,3.2758,3.2769,3.2777,3.2761,3.2766,3.2777,3.2765,3.278,3.2779,3.2778,3.27,3.2693,3.2789,3.2789,3.2789,3.2789,3.2789,3.2789,3.2814,3.2838,3.2825,3.2847,3.2838,3.2851,3.2851,3.2851,3.2847,3.2861,3.2867,3.2856,3.2847,3.2852,3.2857,3.2853,3.2856,3.2875,3.2866,3.2794,3.2783,3.2773,3.2766,3.2876,3.2876,3.2943,3.2943,3.2944]}]]